| time (UTC) | temp F | wind direction | speed MPH | gust MPH | rain 1hr in | rain 24hr in | rain mn in | humidity % | barometer mb |
| 20260902204747 | 64 | 351 | 0.0 | 0.0 | 0.00 | 0.00 | 0.00 | 72 | 1021.4 |
| 20260902203747 | 65 | 351 | 0.0 | 0.0 | 0.00 | 0.00 | 0.00 | 71 | 1021.3 |
| 20260902202747 | 65 | 351 | 0.0 | 0.0 | 0.00 | 0.00 | 0.00 | 70 | 1021.2 |
| 20260902201746 | 66 | 351 | 0.0 | 0.0 | 0.00 | 0.00 | 0.00 | 70 | 1021.2 |
| 20260902200746 | 66 | 351 | 0.0 | 0.0 | 0.00 | 0.00 | 0.00 | 69 | 1021.2 |
| 20260902195746 | 66 | 351 | 0.0 | 0.0 | 0.00 | 0.00 | 0.00 | 69 | 1021.0 |
| 20260902194746 | 67 | 351 | 0.0 | 0.0 | 0.00 | 0.00 | 0.00 | 69 | 1021.0 |
| 20260902193746 | 67 | 351 | 0.0 | 0.0 | 0.00 | 0.00 | 0.00 | 69 | 1020.9 |
| 20260902192745 | 68 | 351 | 0.0 | 0.0 | 0.00 | 0.00 | 0.00 | 68 | 1020.9 |
| 20260902191747 | 68 | 351 | 0.0 | 0.0 | 0.00 | 0.00 | 0.00 | 68 | 1020.8 |
| 20260902190747 | 69 | 351 | 0.0 | 0.0 | 0.00 | 0.00 | 0.00 | 67 | 1020.9 |
| 20260902185746 | 69 | 351 | 0.0 | 0.0 | 0.00 | 0.00 | 0.00 | 66 | 1020.6 |
| 20260902184746 | 69 | 351 | 0.0 | 0.0 | 0.00 | 0.00 | 0.00 | 66 | 1020.5 |
| 20260902183745 | 70 | 351 | 0.0 | 0.0 | 0.00 | 0.00 | 0.00 | 65 | 1020.4 |
| 20260902182745 | 70 | 351 | 0.0 | 0.0 | 0.00 | 0.00 | 0.00 | 64 | 1020.2 |
| 20260902181745 | 71 | 351 | 0.0 | 0.0 | 0.00 | 0.00 | 0.00 | 63 | 1020.0 |
| 20260902180747 | 71 | 351 | 0.0 | 1.0 | 0.00 | 0.00 | 0.00 | 62 | 1020.0 |
| 20260902175746 | 72 | 351 | 0.0 | 2.0 | 0.00 | 0.00 | 0.00 | 61 | 1019.9 |
| 20260902174746 | 72 | 351 | 0.0 | 2.0 | 0.00 | 0.00 | 0.00 | 59 | 1019.7 |
| 20260902173746 | 73 | 351 | 1.0 | 2.0 | 0.00 | 0.00 | 0.00 | 59 | 1019.6 |
| 20260902172746 | 73 | 351 | 0.0 | 4.0 | 0.00 | 0.00 | 0.00 | 58 | 1019.4 |
| 20260902171745 | 74 | 359 | 1.0 | 2.0 | 0.00 | 0.00 | 0.00 | 57 | 1019.4 |
| 20260902170745 | 74 | 3 | 1.0 | 3.0 | 0.00 | 0.00 | 0.00 | 55 | 1019.3 |
| 20260902165747 | 74 | 16 | 0.0 | 3.0 | 0.00 | 0.00 | 0.00 | 56 | 1019.3 |
| 20260902164746 | 74 | 351 | 1.0 | 6.0 | 0.00 | 0.00 | 0.00 | 54 | 1019.3 |
| 20260902163746 | 75 | 355 | 1.0 | 2.0 | 0.00 | 0.00 | 0.00 | 54 | 1019.3 |
| 20260902162746 | 76 | 319 | 0.0 | 1.0 | 0.00 | 0.00 | 0.00 | 54 | 1019.2 |
| 20260902161746 | 76 | 264 | 0.0 | 1.0 | 0.00 | 0.00 | 0.00 | 55 | 1019.2 |
| 20260902160746 | 76 | 264 | 0.0 | 2.0 | 0.00 | 0.00 | 0.00 | 54 | 1019.0 |
| 20260902155746 | 76 | 264 | 0.0 | 3.0 | 0.00 | 0.00 | 0.00 | 53 | 1019.0 |
| 20260902154745 | 76 | 259 | 1.0 | 3.0 | 0.00 | 0.00 | 0.00 | 53 | 1019.0 |
| 20260902153746 | 76 | 205 | 1.0 | 3.0 | 0.00 | 0.00 | 0.00 | 53 | 1018.9 |
| 20260902152746 | 76 | 237 | 1.0 | 2.0 | 0.00 | 0.00 | 0.00 | 54 | 1019.0 |
| 20260902151745 | 76 | 179 | 1.0 | 2.0 | 0.00 | 0.00 | 0.00 | 50 | 1019.1 |
| 20260902150745 | 77 | 174 | 2.0 | 4.0 | 0.00 | 0.00 | 0.00 | 48 | 1019.1 |
| 20260902145745 | 77 | 253 | 1.0 | 6.0 | 0.00 | 0.00 | 0.00 | 48 | 1019.1 |
| 20260902144747 | 78 | 212 | 2.0 | 6.0 | 0.00 | 0.00 | 0.00 | 47 | 1019.2 |
| 20260902143746 | 79 | 203 | 1.0 | 9.0 | 0.00 | 0.00 | 0.00 | 46 | 1019.1 |
| 20260902142746 | 80 | 140 | 3.0 | 7.0 | 0.00 | 0.00 | 0.00 | 44 | 1019.2 |
| 20260902141745 | 80 | 162 | 3.0 | 7.0 | 0.00 | 0.00 | 0.00 | 46 | 1019.1 |
| 20260902140746 | 78 | 327 | 1.0 | 4.0 | 0.00 | 0.00 | 0.00 | 50 | 1019.0 |
| 20260902135746 | 77 | 274 | 2.0 | 6.0 | 0.00 | 0.00 | 0.00 | 48 | 1019.2 |
| 20260902134745 | 77 | 176 | 0.0 | 3.0 | 0.00 | 0.00 | 0.00 | 48 | 1019.2 |
| 20260902133745 | 78 | 272 | 1.0 | 4.0 | 0.00 | 0.00 | 0.00 | 49 | 1019.3 |
| 20260902132745 | 78 | 151 | 3.0 | 6.0 | 0.00 | 0.00 | 0.00 | 47 | 1019.3 |
| 20260902131746 | 78 | 281 | 1.0 | 5.0 | 0.00 | 0.00 | 0.00 | 48 | 1019.5 |
| 20260902130746 | 78 | 264 | 2.0 | 9.0 | 0.00 | 0.00 | 0.00 | 47 | 1019.5 |
| 20260902125745 | 78 | 268 | 3.0 | 9.0 | 0.00 | 0.00 | 0.00 | 47 | 1019.6 |
| 20260902124745 | 78 | 278 | 4.0 | 8.0 | 0.00 | 0.00 | 0.00 | 46 | 1019.6 |
| 20260902123745 | 78 | 242 | 1.0 | 5.0 | 0.00 | 0.00 | 0.00 | 49 | 1019.8 |
| 20260902122746 | 78 | 288 | 2.0 | 7.0 | 0.00 | 0.00 | 0.00 | 48 | 1019.7 |
| 20260902121746 | 77 | 210 | 1.0 | 6.0 | 0.00 | 0.00 | 0.00 | 51 | 1019.8 |
| 20260902120746 | 77 | 168 | 2.0 | 7.0 | 0.00 | 0.00 | 0.00 | 53 | 1020.0 |
| 20260902115746 | 77 | 204 | 2.0 | 8.0 | 0.00 | 0.00 | 0.00 | 53 | 1020.4 |
| 20260902114745 | 76 | 220 | 2.0 | 8.0 | 0.00 | 0.00 | 0.00 | 55 | 1020.7 |
| 20260902113745 | 75 | 271 | 1.0 | 4.0 | 0.00 | 0.00 | 0.00 | 55 | 1020.7 |
| 20260902112745 | 75 | 167 | 2.0 | 5.0 | 0.00 | 0.00 | 0.00 | 57 | 1020.6 |
| 20260902111746 | 74 | 244 | 1.0 | 7.0 | 0.00 | 0.00 | 0.00 | 59 | 1020.7 |
| 20260902110746 | 74 | 296 | 1.0 | 5.0 | 0.00 | 0.00 | 0.00 | 62 | 1020.8 |
| 20260902105746 | 74 | 165 | 2.0 | 6.0 | 0.00 | 0.00 | 0.00 | 62 | 1020.8 |
| 20260902104745 | 73 | 138 | 3.0 | 6.0 | 0.00 | 0.00 | 0.00 | 64 | 1020.8 |
| 20260902103745 | 72 | 208 | 0.0 | 3.0 | 0.00 | 0.00 | 0.00 | 66 | 1021.0 |
| 20260902102745 | 71 | 277 | 2.0 | 4.0 | 0.00 | 0.00 | 0.00 | 65 | 1021.1 |
| 20260902101746 | 70 | 193 | 2.0 | 4.0 | 0.00 | 0.00 | 0.00 | 69 | 1021.3 |
| 20260902100746 | 69 | 161 | 1.0 | 4.0 | 0.00 | 0.00 | 0.00 | 69 | 1021.5 |
| 20260902095746 | 69 | 257 | 1.0 | 3.0 | 0.00 | 0.00 | 0.00 | 71 | 1021.5 |
| 20260902094746 | 68 | 257 | 0.0 | 2.0 | 0.00 | 0.00 | 0.00 | 73 | 1021.5 |
| 20260902093746 | 67 | 254 | 1.0 | 5.0 | 0.00 | 0.00 | 0.00 | 74 | 1021.4 |
| 20260902092745 | 66 | 145 | 1.0 | 4.0 | 0.00 | 0.00 | 0.00 | 73 | 1021.5 |
| 20260902091746 | 66 | 268 | 1.0 | 3.0 | 0.00 | 0.00 | 0.00 | 75 | 1021.7 |
| 20260902090746 | 66 | 254 | 0.0 | 4.0 | 0.00 | 0.00 | 0.00 | 74 | 1021.6 |
| 20260902085746 | 65 | 191 | 0.0 | 3.0 | 0.00 | 0.00 | 0.00 | 79 | 1021.6 |
| 20260902084745 | 63 | 254 | 0.0 | 2.0 | 0.00 | 0.00 | 0.00 | 78 | 1021.4 |
| 20260902083746 | 62 | 254 | 0.0 | 3.0 | 0.00 | 0.00 | 0.00 | 79 | 1021.5 |
| 20260902082746 | 62 | 254 | 0.0 | 2.0 | 0.00 | 0.00 | 0.00 | 79 | 1021.2 |
| 20260902081746 | 61 | 258 | 1.0 | 3.0 | 0.00 | 0.00 | 0.00 | 81 | 1021.2 |
| 20260902080745 | 61 | 258 | 1.0 | 2.0 | 0.00 | 0.00 | 0.00 | 82 | 1021.1 |
| 20260902075745 | 61 | 258 | 0.0 | 2.0 | 0.00 | 0.00 | 0.00 | 82 | 1021.4 |
| 20260902074745 | 60 | 258 | 1.0 | 2.0 | 0.00 | 0.00 | 0.00 | 82 | 1021.5 |
| 20260902073745 | 60 | 258 | 0.0 | 2.0 | 0.00 | 0.00 | 0.00 | 83 | 1021.3 |
| 20260902072746 | 60 | 258 | 0.0 | 2.0 | 0.00 | 0.00 | 0.00 | 84 | 1021.2 |
| 20260902071746 | 59 | 258 | 0.0 | 2.0 | 0.00 | 0.00 | 0.00 | 87 | 1020.9 |
| 20260902070746 | 58 | 258 | 0.0 | 1.0 | 0.00 | 0.00 | 0.00 | 90 | 1021.1 |
| 20260902065746 | 56 | 258 | 0.0 | 0.0 | 0.00 | 0.00 | 0.00 | 90 | 1021.2 |
| 20260902064746 | 55 | 258 | 0.0 | 0.0 | 0.00 | 0.00 | 0.00 | 91 | 1021.3 |
| 20260902063746 | 54 | 258 | 1.0 | 3.0 | 0.00 | 0.00 | 0.00 | 91 | 1021.3 |
| 20260902062745 | 54 | 261 | 1.0 | 3.0 | 0.00 | 0.00 | 0.00 | 92 | 1021.4 |
| 20260902061745 | 54 | 261 | 0.0 | 0.0 | 0.00 | 0.00 | 0.00 | 92 | 1021.4 |
| 20260902060745 | 54 | 261 | 0.0 | 0.0 | 0.00 | 0.00 | 0.00 | 93 | 1021.2 |
| 20260902055745 | 53 | 261 | 0.0 | 0.0 | 0.00 | 0.00 | 0.00 | 93 | 1021.2 |
| 20260902054746 | 53 | 262 | 0.0 | 0.0 | 0.00 | 0.00 | 0.00 | 94 | 1021.0 |
| 20260902053746 | 51 | 262 | 0.0 | 0.0 | 0.00 | 0.00 | 0.00 | 94 | 1020.9 |
| 20260902052746 | 51 | 262 | 0.0 | 0.0 | 0.00 | 0.00 | 0.00 | 93 | 1020.9 |
| 20260902051745 | 51 | 262 | 0.0 | 0.0 | 0.00 | 0.00 | 0.00 | 93 | 1021.1 |
| 20260902050745 | 50 | 262 | 0.0 | 0.0 | 0.00 | 0.00 | 0.00 | 92 | 1021.0 |
| 20260902045745 | 50 | 262 | 0.0 | 0.0 | 0.00 | 0.00 | 0.00 | 92 | 1020.9 |
| 20260902044746 | 51 | 262 | 0.0 | 0.0 | 0.00 | 0.00 | 0.00 | 92 | 1020.9 |
| 20260902043746 | 51 | 262 | 0.0 | 0.0 | 0.00 | 0.00 | 0.00 | 92 | 1020.8 |
| 20260902042746 | 51 | 262 | 0.0 | 0.0 | 0.00 | 0.00 | 0.00 | 92 | 1020.7 |
| 20260902041746 | 51 | 262 | 0.0 | 0.0 | 0.00 | 0.00 | 0.00 | 92 | 1020.7 |
| 20260902040745 | 51 | 262 | 0.0 | 0.0 | 0.00 | 0.00 | 0.00 | 92 | 1020.8 |
| 20260902035745 | 51 | 262 | 0.0 | 0.0 | 0.00 | 0.00 | 0.00 | 92 | 1020.8 |
| 20260902034745 | 51 | 262 | 0.0 | 0.0 | 0.00 | 0.00 | 0.00 | 92 | 1020.7 |
| 20260902033746 | 51 | 262 | 0.0 | 0.0 | 0.00 | 0.00 | 0.00 | 91 | 1020.7 |
| 20260902032746 | 51 | 262 | 0.0 | 0.0 | 0.00 | 0.00 | 0.00 | 91 | 1020.7 |
| 20260902031745 | 51 | 262 | 0.0 | 0.0 | 0.00 | 0.00 | 0.00 | 91 | 1020.7 |
| 20260902030745 | 51 | 262 | 0.0 | 0.0 | 0.00 | 0.00 | 0.00 | 91 | 1020.7 |
| 20260902025746 | 52 | 262 | 0.0 | 0.0 | 0.00 | 0.00 | 0.00 | 91 | 1020.8 |
| 20260902024746 | 52 | 262 | 0.0 | 0.0 | 0.00 | 0.00 | 0.00 | 91 | 1020.9 |
| 20260902023746 | 52 | 262 | 0.0 | 0.0 | 0.00 | 0.00 | 0.00 | 91 | 1020.9 |
| 20260902022745 | 52 | 262 | 0.0 | 0.0 | 0.00 | 0.00 | 0.00 | 90 | 1020.9 |
| 20260902021745 | 52 | 262 | 0.0 | 0.0 | 0.00 | 0.00 | 0.00 | 90 | 1021.0 |
| 20260902020745 | 53 | 262 | 0.0 | 0.0 | 0.00 | 0.00 | 0.00 | 90 | 1021.0 |
| 20260902015745 | 53 | 262 | 0.0 | 0.0 | 0.00 | 0.00 | 0.00 | 90 | 1021.1 |
| 20260902014746 | 53 | 262 | 0.0 | 1.0 | 0.00 | 0.00 | 0.00 | 90 | 1020.9 |
| 20260902013745 | 53 | 262 | 0.0 | 1.0 | 0.00 | 0.00 | 0.00 | 90 | 1020.9 |
| 20260902012745 | 53 | 262 | 0.0 | 0.0 | 0.00 | 0.00 | 0.00 | 89 | 1021.1 |
| 20260902011746 | 53 | 262 | 0.0 | 0.0 | 0.00 | 0.00 | 0.00 | 89 | 1021.3 |
| 20260902010746 | 53 | 262 | 0.0 | 0.0 | 0.00 | 0.00 | 0.00 | 89 | 1021.2 |
| 20260902005745 | 54 | 262 | 0.0 | 0.0 | 0.00 | 0.00 | 0.00 | 89 | 1021.2 |
| 20260902004745 | 54 | 262 | 0.0 | 0.0 | 0.00 | 0.00 | 0.00 | 89 | 1021.2 |
| 20260902003745 | 54 | 262 | 0.0 | 0.0 | 0.00 | 0.00 | 0.00 | 88 | 1021.1 |
| 20260902002746 | 54 | 262 | 0.0 | 0.0 | 0.00 | 0.00 | 0.00 | 87 | 1021.2 |
| 20260902001746 | 55 | 262 | 0.0 | 0.0 | 0.00 | 0.00 | 0.00 | 87 | 1021.1 |
| 20260902000745 | 55 | 262 | 0.0 | 0.0 | 0.00 | 0.00 | 0.00 | 87 | 1021.1 |
| 20260901235745 | 55 | 262 | 0.0 | 0.0 | 0.00 | 0.00 | 0.00 | 87 | 1021.2 |
| 20260901234745 | 55 | 262 | 0.0 | 0.0 | 0.00 | 0.00 | 0.00 | 87 | 1021.3 |
| 20260901233744 | 56 | 262 | 0.0 | 0.0 | 0.00 | 0.00 | 0.00 | 86 | 1021.4 |
| 20260901232744 | 56 | 262 | 0.0 | 0.0 | 0.00 | 0.00 | 0.00 | 85 | 1021.4 |
| 20260901231746 | 56 | 262 | 0.0 | 0.0 | 0.00 | 0.00 | 0.00 | 85 | 1021.4 |
| 20260901230745 | 56 | 262 | 0.0 | 0.0 | 0.00 | 0.00 | 0.00 | 83 | 1021.4 |
| 20260901225745 | 57 | 262 | 0.0 | 0.0 | 0.00 | 0.00 | 0.00 | 83 | 1021.5 |
| 20260901224745 | 57 | 262 | 0.0 | 1.0 | 0.00 | 0.00 | 0.00 | 83 | 1021.5 |
| 20260901223744 | 57 | 262 | 0.0 | 0.0 | 0.00 | 0.00 | 0.00 | 83 | 1021.4 |
| 20260901222746 | 57 | 262 | 0.0 | 0.0 | 0.00 | 0.00 | 0.00 | 83 | 1021.4 |
| 20260901221746 | 57 | 262 | 0.0 | 0.0 | 0.00 | 0.00 | 0.00 | 83 | 1021.4 |
| 20260901220745 | 57 | 262 | 0.0 | 0.0 | 0.00 | 0.00 | 0.00 | 83 | 1021.5 |
| 20260901215745 | 58 | 262 | 0.0 | 0.0 | 0.00 | 0.00 | 0.00 | 82 | 1021.3 |
| 20260901214744 | 58 | 262 | 0.0 | 0.0 | 0.00 | 0.00 | 0.00 | 82 | 1021.4 |
| 20260901213744 | 58 | 262 | 0.0 | 0.0 | 0.00 | 0.00 | 0.00 | 82 | 1021.5 |
| 20260901212746 | 58 | 262 | 0.0 | 0.0 | 0.00 | 0.00 | 0.00 | 79 | 1021.3 |
| 20260901211746 | 59 | 262 | 0.0 | 0.0 | 0.00 | 0.00 | 0.00 | 79 | 1021.2 |
| 20260901210745 | 59 | 262 | 0.0 | 0.0 | 0.00 | 0.00 | 0.00 | 78 | 1021.2 |
| 20260901205745 | 60 | 262 | 0.0 | 0.0 | 0.00 | 0.00 | 0.00 | 76 | 1021.3 |